Location: Ohmer (historical)
(38.0096°N, 122.0227°W)
Time: 00:46:08
(UTC+00:00)

Cosmos 1674 Rocket - Pass Details

Date: 14 February 2026
Orbit: 596 x 622 km, 82.5° (Epoch: 9 March)

Event Time Altitude Azimuth Distance (km) Brightness Sun altitude
Rises 13:01:16 0° 354° (N) 2,904 7.0 -23.8°
Reaches altitude 10° 13:03:31 10° 355° (N) 1,991 6.1 -23.3°
Maximum altitude 13:07:56 79° 82° (E) 633 3.6 -22.5°
Drops below altitude 10° 13:12:17 10° 170° (S) 1,962 6.2 -21.6°
Sets 13:14:29 0° 171° (S) 2,858 7.1 -21.2°
